Location: A�t �Alizem
(31.2076°N, 8.7872°W)
Time: 15:21:36
(UTC+00:00)

Radarsat Rocket - Pass Details

Date: 27 November 2020
Orbit: 933 x 1492 km, 100.6° (Epoch: 25 January)

Event Time Altitude Azimuth Distance (km) Brightness Sun altitude
Rises 18:08:14 0° 169° (S) 3,575 7.1 -7.9°
Reaches altitude 10° 18:10:36 10° 171° (S) 2,648 6.4 -8.3°
Maximum altitude 18:16:26 73° 256° (WSW) 1,024 4.3 -9.5°
Drops below altitude 10° 18:22:47 10° 341° (NNW) 2,876 6.5 -10.8°
Sets 18:25:26 0° 343° (NNW) 3,906 7.1 -11.3°
